This is the latest recevied weather packets stored in our database for station/object PY2UEP-1. If no packets are shown the sender has not sent any weather packets the latest 10 day(s).
| Time | Temp. | Humidity | Pressure | Rain* | Wind** | Luminosity | Snow |
|---|---|---|---|---|---|---|---|
| 1777498236 | 25.56° C | 74% | 1014.9 hPa | 0 mm | - | - | - |
| 1777497936 | 25.56° C | 74% | 1014.9 hPa | 0 mm | - | - | - |
| 1777497636 | 25.56° C | 73% | 1014.8 hPa | 0 mm | - | - | - |
| 1777497336 | 26.11° C | 71% | 1014.7 hPa | 0 mm | - | - | - |
| 1777497036 | 26.67° C | 70% | 1014.7 hPa | 0 mm | - | - | - |
| 1777496736 | 26.67° C | 69% | 1014.6 hPa | 0 mm | - | - | - |
| 1777496436 | 26.67° C | 67% | 1014.6 hPa | 0 mm | - | - | - |
| 1777496136 | 26.67° C | 67% | 1014.7 hPa | 0 mm | - | - | - |
| 1777495836 | 27.22° C | 66% | 1014.8 hPa | 0 mm | - | - | - |
| 1777495536 | 27.22° C | 64% | 1014.9 hPa | 0 mm | - | - | - |
| 1777495236 | 27.22° C | 64% | 1014.9 hPa | 0 mm | - | - | - |
| 1777494936 | 27.22° C | 67% | 1014.9 hPa | 0 mm | - | - | - |
| 1777494636 | 27.22° C | 65% | 1015.1 hPa | 0 mm | - | - | - |
| 1777494336 | 27.78° C | 63% | 1015 hPa | 0 mm | - | - | - |
| 1777494036 | 27.22° C | 67% | 1014.9 hPa | 0 mm | - | - | - |
| 1777493736 | 27.22° C | 68% | 1015.1 hPa | 0 mm | - | - | - |
| 1777493436 | 27.22° C | 67% | 1015.1 hPa | 0 mm | - | - | - |
| 1777493136 | 27.22° C | 67% | 1015 hPa | 0 mm | - | - | - |
| 1777492836 | 27.22° C | 65% | 1015 hPa | 0 mm | - | - | - |
| 1777492536 | 27.22° C | 66% | 1015 hPa | 0 mm | - | - | - |
| 1777492236 | 27.78° C | 66% | 1015.1 hPa | 0 mm | - | - | - |
| 1777491936 | 27.78° C | 65% | 1015.1 hPa | 0 mm | - | - | - |
| 1777491636 | 27.78° C | 64% | 1015.2 hPa | 0 mm | - | - | - |
| 1777491336 | 27.78° C | 63% | 1015 hPa | 0 mm | - | - | - |
| 1777491036 | 28.33° C | 62% | 1015 hPa | 0 mm | - | - | - |
* Rain since midnight (hover to see other rain measurements)
** Current wind speed in m/s (hover to see current wind gust speed)